Weather History for KGUP - September, 2012

Change the Weather History Date:

Friday, September 28, 2012

  Actual Average Record
Temperature  
Mean Temperature 57 °F -  
Max Temperature 77 °F 73 °F 88 °F (2010)
Min Temperature 39 °F 36 °F 22 °F (1993)
Degree Days  
Heating Degree Days 8    
Growing Degree Days 7 (Base 50)    
Moisture  
Dew Point 31 °F    
Average Humidity 37    
Maximum Humidity 63    
Minimum Humidity 16    
Precipitation  
Precipitation 0.00 in - - ()
Sea Level Pressure  
Sea Level Pressure 29.87 in    
Wind  
Wind Speed 3 mph (NE)    
Max Wind Speed 9 mph    
Max Gust Speed -    
Visibility 10 miles    
Events      
Averages and records for this station are not official NWS values.
T = Trace of Precipitation, MM = Missing Value Source: NWS Daily Summary

Daily Weather History Graph

Daily Weather History Graph

Search for Another Location

Airport or City:

Trip Planner

Search our weather history database for the weather conditions in past years. The results will help you decide how hot, cold, wet, or windy it might be!

Date:

Astronomy

Sep. 28, 2012 Rise Set
Actual Time 7:08 AM MDT 7:02 PM MDT
Civil Twilight 6:42 AM MDT 7:27 PM MDT
Nautical Twilight 6:13 AM MDT 7:57 PM MDT
Astronomical Twilight 5:43 AM MDT 8:27 PM MDT
Moon 6:05 PM MDT (9/28) 5:43 AM MDT (9/28)
Length of Visible Light 12h 45m
Length of Day
11h 54m
Waxing Gibbous, 98% of the Moon is Illuminated
Sep 28
Waxing Gibbous
Sep 29
Full
Oct 8
Last Quarter
Oct 15
New
Oct 21
First Quarter

Hourly Weather History & Observations

Time (MDT) Temp. Dew Point Humidity Pressure Visibility Wind Dir Wind Speed Gust Speed Precip Events Conditions
12:53 AM 52.0 °F 32.0 °F 47% 29.87 in 10.0 mi East 3.5 mph - N/A   Partly Cloudy
1:53 AM 52.0 °F 33.1 °F 49% 29.85 in 10.0 mi Calm Calm - N/A   Clear
2:53 AM 45.0 °F 30.0 °F 56% 29.89 in 10.0 mi Calm Calm - N/A   Clear
3:53 AM 44.1 °F 30.9 °F 60% 29.88 in 10.0 mi Calm Calm - N/A   Clear
4:53 AM 42.1 °F 28.9 °F 60% 29.90 in 10.0 mi Calm Calm - N/A   Clear
5:53 AM 41.0 °F 28.9 °F 62% 29.93 in 10.0 mi Calm Calm - N/A   Clear
6:53 AM 39.9 °F 28.0 °F 63% 29.96 in 10.0 mi Calm Calm - N/A   Clear
7:53 AM 42.1 °F 28.0 °F 58% 29.99 in 10.0 mi Calm Calm - N/A   Clear
8:53 AM 54.0 °F 32.0 °F 43% 29.96 in 10.0 mi NE 4.6 mph - N/A   Clear
9:53 AM 61.0 °F 34.0 °F 36% 29.93 in 10.0 mi NE 4.6 mph - N/A   Clear
10:53 AM 66.0 °F 35.1 °F 32% 29.90 in 10.0 mi East 6.9 mph - N/A   Clear
11:53 AM 70.0 °F 35.1 °F 28% 29.86 in 10.0 mi NNE 3.5 mph - N/A   Clear
12:53 PM 75.0 °F 30.9 °F 20% 29.82 in 10.0 mi NNE 6.9 mph - N/A   Clear
1:53 PM 73.9 °F 24.1 °F 16% 29.80 in 10.0 mi Calm Calm - N/A   Clear
2:53 PM 75.9 °F 26.1 °F 16% 29.80 in 10.0 mi Variable 5.8 mph - N/A   Clear
3:53 PM 75.0 °F 27.0 °F 17% 29.80 in 10.0 mi North 8.1 mph - N/A   Scattered Clouds
4:53 PM 75.0 °F 28.0 °F 18% 29.80 in 10.0 mi WNW 3.5 mph - N/A   Clear
5:53 PM 73.0 °F 28.9 °F 20% 29.83 in 10.0 mi North 5.8 mph - N/A   Mostly Cloudy
6:53 PM 71.1 °F 30.0 °F 22% 29.85 in 10.0 mi NNE 9.2 mph - N/A   Partly Cloudy
7:53 PM 66.9 °F 30.0 °F 25% 29.88 in 10.0 mi NE 6.9 mph - N/A   Mostly Cloudy
8:53 PM 62.1 °F 28.9 °F 29% 29.86 in 10.0 mi SSW 3.5 mph - N/A   Mostly Cloudy
9:53 PM 62.1 °F 35.1 °F 37% 29.83 in 10.0 mi South 5.8 mph - N/A   Overcast
10:53 PM 59.0 °F 35.1 °F 41% 29.83 in 10.0 mi Calm Calm - N/A   Clear
11:53 PM 53.1 °F 32.0 °F 45% 29.85 in 10.0 mi Calm Calm - N/A   Clear